C/2003 G2 ( LINEAR )

Japanese version
Home page
Updated on October 10, 2003

---------------------------------------------------------------------

* Profile

Discovery Date April 8, 2003
Magnitude 18.2 mag
Discoverer Lincoln Laboratory Near-Earth Asteroid Research project

* Orbital Elements

T 2003 Apr. 29.8899 TT                                  MPC
q   1.553788             (2000.0)            P               Q
                   Peri.  190.6530      -0.9020995      +0.1239787
                   Node    24.5677      -0.2851176      +0.5477482
e   1.0            Incl.   96.2024      -0.3239204      -0.8274063
>From 98 observations 2003 Apr. 8-May 2.

* Finding Charts

* Magnitudes Graph

        m1 = 16.5 + 5 log d + 10.0 log r

---------------------------------------------------------------------

The orbital elements are published on M.P.E.C. 2003-J29.
The charts are made with StellaNavigator Ver.2.0 for Windows (AstroArts / ASCII).
The magnitudes graphs are made with Comet for Windows.

---------------------------------------------------------------------

Copyright(C) Seiichi Yoshida (comet@aerith.net). All rights reserved.